Regional Weather Roundup
Issued by NWS

Home | Current Version | Previous Version | Text Only | Print | Product List | Glossary On
Versions: 1 2 3 4 5 6 7 8 9 10 11 12 13 14 15 16 17 18 19 20 21 22 23 24 25 26 27 28 29 30 31 32 33 34 35 36 37 38 39 40 41 42 43 44 45 46 47 48 49 50
000
ASUS43 KDTX 061301
RWRMI
MICHIGAN HOURLY REGIONAL WEATHER ROUNDUP
NATIONAL WEATHER SERVICE DETROIT/PONTIAC MI
800 AM EST FRI MAR 06 2015

NOTE: "FAIR" INDICATES FEW OR NO CLOUDS BELOW 12,000 FEET WITH NO
SIGNIFICANT WEATHER AND/OR OBSTRUCTION TO VISIBILITY.

MIZ047>049-052>055-059>063-066>070-074>076-081>083-061400-
SOUTHEAST LOWER MICHIGAN

CITY           SKY/WX    TMP DP  RH WIND       PRES   REMARKS
ADRIAN         MOCLDY     0  -3  87 W3        30.48F FOG
ALMA           FLURRIES   3   1  88 S8        30.40S WCI -10
ANN ARBOR      PTCLDY    -8 -10  91 CALM      30.46F
BAD AXE        PTCLDY     1  -2  86 SW7       30.40S WCI -11
CARO           PTCLDY     0  -3  85 S5        30.41S WCI -10
DETROIT CITY   PTSUNNY    8   1  73 SW7       30.48S WCI  -3
DETROIT        MOCLDY     3  -1  83 S7        30.49S WCI  -9
FLINT          MOCLDY     6   0  76 S9        30.43F WCI  -8
GROSSE ILE     PTSUNNY    5   1  85 CALM      30.48F
HILLSDALE      PTCLDY     5   1  84 SW6       30.42S WCI  -6
HOWELL         PTCLDY     4   0  83 S6        30.43S WCI  -7

CITY           SKY/WX    TMP DP  RH WIND       PRES   REMARKS
JACKSON        PTCLDY     3  -1  83 SW7       30.43F WCI  -9
LAMBERTVILLE   PTCLDY     3  -2  78 CALM      30.50S
LANSING        PTCLDY     5   0  79 S9        30.43F WCI  -9
LAPEER         FAIR      -6  -9  86 S3        30.43S
MASON          PTCLDY     0  -4  84 CALM      30.43S
MONROE         MOCLDY     1  -2  85 CALM      30.47F
MT. CLEMENS    SUNNY     -4  -8  81 CALM      30.45S
PONTIAC        MOCLDY    -1  -6  79 CALM      30.42F
PORT HOPE        N/A      6  -1  73 SW9       30.38F WCI  -8
PORT HURON     PTSUNNY   -8 -13  77 CALM      30.47S
TRI CITIES     PTCLDY     4  -1  80 S7        30.41S WCI  -8
TROY           MOCLDY     8   2  78 CALM      30.48S
SAGINAW HB     FAIR       7   1  78 SW10      30.41F WCI  -8
$$
MIZ043>046-050>051-056>058-064>065-071>073-077>080-061400-
SOUTHWEST LOWER MICHIGAN

CITY           SKY/WX    TMP DP  RH WIND       PRES   REMARKS
BATTLE CREEK   MOCLDY     2  -3  80 S7        30.42F WCI -11
BENTON HARBOR  PTCLDY     3  -2  79 S9        30.45F WCI -12
BIG RAPIDS     FLURRIES   4   1  89 SW3       30.32F
COLDWATER      PTCLDY     1  -4  82 SW6       30.44F WCI -11
FREMONT        LGT SNOW   6   3  86 CALM      30.36F
HOLLAND        PTCLDY     7   2  80 S9        30.42F WCI  -7
GRAND RAPIDS   FLURRIES   6   1  80 S12       30.40F WCI  -9
IONIA          FAIR       4  -1  78 SW7       30.39F WCI  -8
KALAMAZOO      MOCLDY     0  -4  83 S9        30.44F WCI -15
LUDINGTON      CLEAR     17   8  70 SW12      30.33F WCI   4
MARSHALL       FAIR       2  -3  83 S5        30.43S WCI  -8
MOUNT PLEASANT LGT SNOW   4   0  84 S5        30.36F WCI  -5
MUSKEGON       MOCLDY    16   9  74 SW13      30.38F WCI   2
SOUTH HAVEN    PTCLDY     8   1  75 S8        30.43F WCI  -5
$$
MIZ016>042-061400-
NORTHERN LOWER MICHIGAN

CITY           SKY/WX    TMP DP  RH WIND       PRES   REMARKS
ALPENA         PTCLDY     4  -1  80 S7        30.29F WCI  -8
BEAVER ISLAND  CLEAR     11   5  74 SW13G20   30.21F WCI  -4
BELLAIRE       CLEAR      5   2  86 SW3       30.28F
CADILLAC       FLURRIES   7   4  86 SW8       30.25F WCI  -5
CHARLEVOIX     CLEAR      8   2  78 CALM      30.27F
FRANKFORT      PTCLDY    17  10  72 SW10G17   30.29S WCI   5
GAYLORD        PTCLDY     7   2  80 SW18G24   30.20F WCI -12
GRAYLING       PTCLDY    -2  -4  88 SE5       30.26F WCI -12
HARBOR SPRINGS CLEAR      5   0  80 W3        30.24F
HOUGHTON LAKE  PTCLDY     3  -1  83 SW9       30.29F WCI -12
MANISTEE       PTCLDY     0  -6  78 CALM      30.31F
OSCODA         PTCLDY     2  -2  83 SW12      30.35F WCI -15
PELLSTON       PTCLDY     7   1  76 SW5       30.24F WCI  -2
ROGERS CITY    PTCLDY     3  -1  83 SW10      30.27F WCI -12
TRAVERSE CITY  CLEAR     11   4  73 SW8       30.27F WCI  -1
$$
MIZ007>008-015-061400-
EASTERN UPPER MICHIGAN

CITY           SKY/WX    TMP DP  RH WIND       PRES   REMARKS
KINROSS        PTCLDY     3   1  92 S7        30.19F WCI  -9
MACKINAC ISLAN PTCLDY     7   0  74 SW9       30.21F WCI  -7
NEWBERRY       PTCLDY     3  -3  75 SW12G17   30.15S WCI -14
S. S. MARIE    MOCLDY    -6 -11  79 E3        30.20F
MUNISING         N/A      4  -7  60 SW15G26   30.12F WCI -14
$$
MIZ004>006-011>014-085-061400-
CENTRAL UPPER MICHIGAN

CITY           SKY/WX    TMP DP  RH WIND       PRES   REMARKS
MANISTIQUE     PTCLDY     5  -2  72 SW8       30.20F WCI  -8
ESCANABA       PTCLDY     1  -8  66 SW6       30.20F WCI -10
MENOMINEE      PTCLDY     1  -6  71 SW10      30.22F WCI -14
SAWYER-GWINN   PTCLDY     1  -6  71 SW12      30.07F WCI -15
$$
MIZ001>003-009>011-084-061400-
WESTERN UPPER MICHIGAN

CITY           SKY/WX    TMP DP  RH WIND       PRES   REMARKS
IRON MOUNTAIN  PTCLDY    -1  -7  75 SE7       30.10F WCI -14
HOUGHTON       CLOUDY     2  -5  72 W7        29.96F WCI -11
COPPER HARBOR    N/A      9  -2  61 SW14G24   29.96F WCI  -7
IRONWOOD       CLOUDY     9   1  72 SW17      29.95F WCI -10
$$

ABBREVIATIONS USED IN REMARKS
   TC - TEMPERATURE IN CELSIUS
  WCI - WIND CHILL INDEX
   HX - HEAT INDEX
  VSB - VISIBILITY




USA.gov is the U.S. government's official web portal to all federal, state and local government web resources and services.